Weather History for KOCW - May, 2013

Change the Weather History Date:

Thursday, May 30, 2013

  Actual Average (KEWN) Record (KEWN)
Temperature  
Mean Temperature 74 °F 73 °F  
Max Temperature 86 °F 84 °F 96 °F (1991)
Min Temperature 63 °F 63 °F 53 °F (2008)
Degree Days  
Heating Degree Days 0 0  
Month to date heating degree days 32  
Since 1 July heating degree days 2699  
Cooling Degree Days 10 8  
Month to date cooling degree days 164  
Year to date cooling degree days 234  
Growing Degree Days 24 (Base 50)    
Moisture  
Dew Point 64 °F    
Average Humidity 69    
Maximum Humidity 84    
Minimum Humidity 42    
Precipitation  
Precipitation 0.10 in 0.15 in 3.89 in (1984)
Month to date precipitation 4.00  
Year to date precipitation 19.24  
Snow  
Snow 0.00 in - - ()
Month to date snowfall  
Since 1 July snowfall  
Snow Depth -    
Sea Level Pressure  
Sea Level Pressure 30.25 in    
Wind  
Wind Speed 5 mph (SSW)    
Max Wind Speed 12 mph    
Max Gust Speed -    
Visibility 10 miles    
Events      
T = Trace of Precipitation, MM = Missing Value Source: NWS Daily Summary

Daily Weather History Graph

Daily Weather History Graph

Search for Another Location

Airport or City:

Trip Planner

Search our weather history database for the weather conditions in past years. The results will help you decide how hot, cold, wet, or windy it might be!

Date:

Astronomy

May. 30, 2013 Rise Set
Actual Time 5:54 AM EDT 8:17 PM EDT
Civil Twilight 5:25 AM EDT 8:46 PM EDT
Nautical Twilight 4:49 AM EDT 9:22 PM EDT
Astronomical Twilight 4:09 AM EDT 10:02 PM EDT
Moon 12:24 AM EDT 11:52 AM EDT
Length of Visible Light 15h 21m
Length of Day
14h 22m
Waning Gibbous, 62% of the Moon is Illuminated
May 30
Waning Gibbous
May 31
Last Quarter
Jun 8
New
Jun 16
First Quarter
Jun 23
Full

Hourly Weather History & Observations

Time (EDT) Temp. Heat Index Dew Point Humidity Pressure Visibility Wind Dir Wind Speed Gust Speed Precip Events Conditions
12:15 AM 70.7 °F - 63.9 °F 79% 30.24 in 10.0 mi South 4.6 mph - N/A   Clear
12:35 AM 70.7 °F - 63.9 °F 79% 30.25 in 10.0 mi South 3.5 mph - N/A   Clear
12:55 AM 70.7 °F - 63.9 °F 79% 30.25 in 10.0 mi South 5.8 mph - N/A   Clear
1:15 AM 70.2 °F - 63.5 °F 79% 30.25 in 10.0 mi SSW 3.5 mph - N/A   Clear
1:35 AM 68.0 °F - 61.7 °F 80% 30.25 in 10.0 mi South 3.5 mph - N/A   Clear
1:55 AM 68.0 °F - 61.7 °F 80% 30.25 in 10.0 mi South 3.5 mph - N/A   Clear
2:15 AM 68.0 °F - 61.7 °F 80% 30.25 in 10.0 mi South 4.6 mph - N/A   Clear
2:35 AM 68.0 °F - 61.7 °F 80% 30.24 in 10.0 mi South 4.6 mph - N/A   Clear
2:55 AM 68.0 °F - 61.7 °F 80% 30.24 in 10.0 mi SSW 3.5 mph - N/A   Clear
3:15 AM 66.7 °F - 60.3 °F 80% 30.24 in 10.0 mi South 3.5 mph - N/A   Clear
3:35 AM 66.2 °F - 59.5 °F 79% 30.25 in 10.0 mi Calm Calm - N/A   Clear
3:55 AM 65.5 °F - 59.0 °F 80% 30.25 in 10.0 mi Calm Calm - N/A   Clear
4:15 AM 65.3 °F - 58.8 °F 80% 30.25 in 10.0 mi Calm Calm - N/A   Clear
4:35 AM 65.5 °F - 59.0 °F 80% 30.25 in 10.0 mi South 3.5 mph - N/A   Clear
4:55 AM 65.5 °F - 59.0 °F 80% 30.25 in 10.0 mi South 3.5 mph - N/A   Clear
5:15 AM 65.5 °F - 59.0 °F 80% 30.25 in 10.0 mi Calm Calm - N/A   Clear
5:35 AM 65.5 °F - 59.0 °F 80% 30.25 in 10.0 mi Calm Calm - N/A   Clear
5:55 AM 64.8 °F - 58.3 °F 79% 30.26 in 10.0 mi Calm Calm - N/A   Clear
6:15 AM 64.4 °F - 57.7 °F 79% 30.27 in 10.0 mi Calm Calm - N/A   Clear
6:35 AM 63.3 °F - 57.0 °F 80% 30.27 in 10.0 mi Calm Calm - N/A   Clear
6:55 AM 64.4 °F - 57.7 °F 79% 30.28 in 7.0 mi Calm Calm - N/A   Clear
7:15 AM 66.0 °F - 59.4 °F 79% 30.29 in 10.0 mi Calm Calm - N/A   Clear
7:35 AM 68.0 °F - 61.5 °F 80% 30.29 in 10.0 mi Calm Calm - N/A   Clear
7:55 AM 71.1 °F - 64.4 °F 79% 30.29 in 10.0 mi SSW 3.5 mph - N/A   Clear
8:15 AM 73.0 °F - 66.2 °F 79% 30.29 in 10.0 mi SSW 4.6 mph - N/A   Clear
8:35 AM 73.0 °F - 66.2 °F 79% 30.30 in 10.0 mi SSW 5.8 mph - N/A   Clear
8:55 AM 73.0 °F - 65.8 °F 78% 30.30 in 10.0 mi SSW 5.8 mph - N/A   Clear
9:15 AM 74.3 °F - 66.6 °F 77% 30.30 in 10.0 mi SSW 3.5 mph - N/A   Clear
9:35 AM 77.5 °F - 68.7 °F 74% 30.29 in 10.0 mi SSW 5.8 mph - N/A   Clear
9:55 AM 78.1 °F - 67.1 °F 69% 30.29 in 10.0 mi South 6.9 mph - N/A   Clear
10:15 AM 78.1 °F - 66.0 °F 66% 30.29 in 10.0 mi SW 4.6 mph - N/A   Clear
10:35 AM 78.1 °F - 64.8 °F 63% 30.28 in 10.0 mi SW 5.8 mph - N/A   Clear
10:55 AM 79.3 °F - 64.9 °F 61% 30.28 in 10.0 mi SW 9.2 mph - N/A   Clear
11:15 AM 80.8 °F 82.5 °F 64.9 °F 58% 30.28 in 10.0 mi SW 5.8 mph - N/A   Clear
11:35 AM 80.8 °F 82.1 °F 63.1 °F 55% 30.27 in 10.0 mi West 6.9 mph - N/A   Clear
11:55 AM 81.3 °F 83.3 °F 65.7 °F 59% 30.27 in 10.0 mi SSW 9.2 mph - N/A   Clear
12:15 PM 81.3 °F 83.2 °F 65.5 °F 58% 30.27 in 10.0 mi WSW 11.5 mph - N/A   Clear
12:35 PM 82.4 °F 84.4 °F 65.8 °F 57% 30.27 in 10.0 mi WSW 9.2 mph - N/A   Clear
12:55 PM 83.3 °F 85.3 °F 65.8 °F 55% 30.26 in 10.0 mi WSW 8.1 mph - N/A   Clear
1:15 PM 83.3 °F 85.3 °F 65.7 °F 55% 30.26 in 10.0 mi West 9.2 mph - N/A   Clear
1:35 PM 83.5 °F 85.3 °F 65.1 °F 54% 30.25 in 10.0 mi SW 6.9 mph - N/A   Clear
1:55 PM 83.7 °F 84.9 °F 64.0 °F 51% 30.25 in 10.0 mi SW 6.9 mph - N/A   Clear
2:15 PM 84.6 °F 85.9 °F 63.9 °F 50% 30.24 in 10.0 mi SW 11.5 mph - N/A   Clear
2:35 PM 84.6 °F 85.2 °F 62.1 °F 47% 30.23 in 10.0 mi SSW 3.5 mph - N/A   Clear
2:55 PM 85.1 °F 85.7 °F 62.4 °F 46% 30.23 in 10.0 mi SW 9.2 mph - N/A   Clear
3:15 PM 86.0 °F 86.3 °F 61.5 °F 44% 30.22 in 10.0 mi West 6.9 mph - N/A   Clear
3:35 PM 86.0 °F 86.1 °F 60.8 °F 43% 30.22 in 10.0 mi SSW 8.1 mph - N/A   Clear
3:55 PM 85.6 °F 85.4 °F 60.3 °F 42% 30.21 in 10.0 mi SW 4.6 mph - N/A   Scattered Clouds
4:55 PM 86.2 °F 86.8 °F 62.4 °F 45% 30.20 in 10.0 mi West 5.8 mph - 0.10 in   Clear
5:15 PM 86.5 °F 86.8 °F 61.5 °F 43% 30.19 in 10.0 mi South 6.9 mph - N/A   Scattered Clouds
5:35 PM 86.4 °F 87.0 °F 62.6 °F 45% 30.19 in 10.0 mi South 5.8 mph - N/A   Scattered Clouds
5:55 PM 86.0 °F 88.2 °F 66.0 °F 51% 30.20 in 10.0 mi SSE 6.9 mph - N/A   Scattered Clouds
6:15 PM 84.6 °F 87.9 °F 68.2 °F 58% 30.20 in 10.0 mi SSE 4.6 mph - N/A   Scattered Clouds
6:35 PM 83.3 °F 86.9 °F 68.9 °F 62% 30.20 in 10.0 mi SE 4.6 mph - N/A   Clear
6:55 PM 83.8 °F 87.8 °F 69.4 °F 62% 30.20 in 10.0 mi SSE 5.8 mph - N/A   Scattered Clouds
7:15 PM 83.3 °F 87.6 °F 70.3 °F 65% 30.21 in 10.0 mi SSE 5.8 mph - N/A   Clear
7:35 PM 83.3 °F 87.9 °F 71.1 °F 66% 30.21 in 10.0 mi SSE 9.2 mph - N/A   Clear
7:55 PM 80.8 °F 84.2 °F 70.0 °F 70% 30.21 in 10.0 mi SSE 8.1 mph - N/A   Clear
8:15 PM 80.8 °F 84.4 °F 70.5 °F 71% 30.21 in 10.0 mi SSE 8.1 mph - N/A   Clear
8:35 PM 79.9 °F - 70.3 °F 73% 30.21 in 10.0 mi South 6.9 mph - N/A   Clear
8:55 PM 78.1 °F - 70.0 °F 76% 30.21 in 10.0 mi South 9.2 mph - N/A   Clear
9:15 PM 78.1 °F - 70.7 °F 78% 30.21 in 10.0 mi South 9.2 mph - N/A   Clear
9:35 PM 78.1 °F - 71.6 °F 80% 30.22 in 10.0 mi South 6.9 mph - N/A   Clear
9:55 PM 78.1 °F - 71.8 °F 81% 30.23 in 10.0 mi South 5.8 mph - N/A   Clear
10:15 PM 75.6 °F - 69.6 °F 82% 30.24 in 10.0 mi SSW 6.9 mph - N/A   Clear
10:35 PM 74.3 °F - 68.9 °F 83% 30.24 in 10.0 mi SSW 8.1 mph - N/A   Clear
10:55 PM 73.6 °F - 68.4 °F 84% 30.23 in 10.0 mi South 6.9 mph - N/A   Clear
11:15 PM 73.0 °F - 68.0 °F 84% 30.24 in 10.0 mi South 5.8 mph - N/A   Clear
11:35 PM 73.0 °F - 68.0 °F 84% 30.23 in 10.0 mi South 5.8 mph - N/A   Clear
11:55 PM 73.0 °F - 68.0 °F 84% 30.23 in 10.0 mi South 4.6 mph - N/A   Clear